Home > Weather > East London > Past weeks

Flag for South Africa Weather for the Past 2 Weeks in East London, South Africa

Now
77 °F

Passing clouds.


Feels Like: 79 °F
Forecast: 62 / 78 °F
Wind: 22 mph from Northeast

Location: East London

Current Time: Feb 6, 2016 at 11:28:24 AM

Latest Report: Feb 6, 2016 at 11:00 AM


Visibility: N/A

Pressure: 30.01 "Hg

Humidity: 57%

Dew point: 61 °F

Location of East LondonLocation

Historic Weather in East London — Graph

°F

East London Temperature Yesterday

Maximum temperature yesterday: 73 °F (at 1:00 PM)
Minimum temperature yesterday: 64 °F (at 5:00 AM)
Average temperature yesterday: 69 °F

High & Low Weather Summary for the Past Weeks

 TemperatureHumidityPressure
High86 °F (Jan 30, 2:00 PM)100% (Jan 23, 5:00 AM)30.18 "Hg (Jan 23, 5:00 AM)
Low61 °F (Jan 29, 5:00 AM)48% (Jan 27, 1:00 PM)29.68 "Hg (Jan 24, 2:00 PM)
Average75 °F75%29.96 "Hg
* Reported Jan 22 10:00 AM — Feb 6 10:00 AM, East London, Weather by CustomWeather, © 2016

Note: Actual official high and low records may vary slightly from our data, if they occured in-between our weather recording intervals... More about our weather records

Advertising

East London Weather History for the Previous 24 Hours

 ConditionsComfort  
Time TempWeatherWind HumidityBarometerVisibility
10:00 AM
Sat, Feb 6
75 °FScattered clouds.18 mph61%30.01 "HgN/A
9:00 AM75 °FPassing clouds.16 mph57%30.04 "HgN/A
8:00 AM72 °FPassing clouds.12 mph65%30.04 "HgN/A
7:00 AM66 °FPassing clouds.8 mph73%30.04 "HgN/A
6:00 AM63 °FSunny.7 mph83%30.04 "Hg10 mi
5:00 AM63 °FPassing clouds.6 mph83%30.04 "HgN/A
11:00 PM
Fri, Feb 5
64 °FPassing clouds.5 mph83%30.12 "HgN/A
10:00 PM66 °FPassing clouds.5 mph78%30.12 "HgN/A
9:00 PM66 °FPassing clouds.7 mph78%30.12 "HgN/A
8:00 PM68 °FPassing clouds.9 mph73%30.12 "HgN/A
7:00 PM68 °FPassing clouds.15 mph73%30.09 "HgN/A
6:00 PM70 °FPassing clouds.14 mph64%30.09 "HgN/A
5:00 PM72 °FPassing clouds.17 mph61%30.09 "HgN/A
4:00 PM73 °FPassing clouds.15 mph50%30.09 "HgN/A
3:00 PM73 °FPassing clouds.15 mph53%30.09 "HgN/A
2:00 PM73 °FScattered clouds.15 mph57%30.12 "HgN/A
1:00 PM73 °FPassing clouds.13 mph50%30.12 "HgN/A
12:00 PM72 °FPartly sunny.9 mph53%30.15 "HgN/A
11:00 AM72 °FPartly sunny.8 mph53%30.15 "HgN/A
Weather by CustomWeather, © 2016

See weather overviewHow to use our weather pages